FENGYUN 1C DEB, 30065

Orbit data source: Space-Track

FENGYUN 1C DEB, 30065 is space debris in SSO originally from a launch on Mon, 10 May 1999 UTC launched from the Taiyaun Space Center, China (TSC). Fengyun 1C debris stems from the Chinese weather satellite Fengyun-1C, which was intentionally destroyed by a Chinese anti-satellite missile in 2007. This event dramatically increased the amount of space debris, with thousands of trackable fragments posing hazards to satellites and human spaceflight. The Fengyun 1C debris cloud has become a focal point in discussions about space sustainability and the need for international regulations to prevent the creation of new debris.

Loading next visibility...
Identifier
30065, 1999-025PS
Orbit
SSO
Country
Flag of CNCN / PRC
Related business
Manufacturer
Unknown
Mission
Spacecraft
Bus & Motor
Unknown
Mass
Unknown
Launch date (UTC)
1999-05-10 (26 years ago)
Launch vehicle
Unknown
Launch site
Taiyaun Space Center, China (TSC)
Object type
Payload
Rocket body
Debris
Shape & HBR
Unknown shape, 0.2 m
Radar Cross Section
Small (<0.1 m²)

Expand to show TLE details & history
Last TLE update: 7 hours ago

TLE from 7 hours ago
0 FENGYUN 1C DEB
1 30065U 99025PS  25310.21649396  .00000151  00000-0  15189-3 0  9994
2 30065  98.6797 285.6445 0131729 130.6490 230.6210 13.86894076951654
Epoch: 2025-11-06T05:11Z
TLE epoch observation values (Epoch: 2025-11-06T05:11:45.078Z)
Latitude
0.00008°
Longitude
162.02867°
Altitude
1,004.326 km
Speed
7.318 km/s
True Right ascension
19h 02m 34s
True Declination
0° 00' 00"
Sunlit
Object was in daylight at epoch
Visualization orbit readout
Latitude
Unknown
Longitude
Unknown
Altitude
Unknown
Speed
Unknown
Apparent Right ascension
Unknown
Apparent Declination
Unknown
Sunlit
N/A
Visualization observer readout
Local Sidereal Time
08:17:18
Azimuth
Unknown
Elevation
Unknown
Doppler factor
Unknown
Orbital elements
Apogee altitude
1,033.095 km
Perigee altitude
840.378 km
Semi-major axis
7,314.874 km
Eccentricity
0.01317
Inclination
98.6797°
RAAN
285.6445°
Arg. of periapsis
130.649°
True anomaly
229.46635°
Mean anomaly
230.621°
Eccentric anomaly
230.04247°
Mean motion
3.46923 °/min
Orbital period
103.77 mins
BSTAR
0.00015189
Loading maneuver chart data...
Computing Atmospheric mass density...

Documentation

Showing up to 5 results
|